Regional Weather Roundup
Issued by NWS

Home | Current Version | Previous Version | Text Only | Print | Product List | Glossary Off
Versions: 1 2 3 4 5 6 7 8 9 10 11 12 13 14 15 16 17 18 19 20 21 22 23 24 25 26 27 28 29 30 31 32 33 34 35 36 37 38 39 40 41 42 43 44 45 46 47 48 49

000
ASUS45 KCYS 042110
RWRWY

WYOMING REGIONAL WEATHER ROUNDUP
NATIONAL WEATHER SERVICE CHEYENNE WY
200 PM MST WED MAR 04 2015

NOTE:  "FAIR" INDICATES FEW OR NO CLOUDS BELOW 12,000 FEET
WITH NO SIGNIFICANT WEATHER AND/OR OBSTRUCTIONS TO VISIBILITY.

WYZ001-042200-
YELLOWSTONE NATIONAL PARK

CITY           SKY/WX    TMP DP  RH WIND       PRES   REMARKS
LK YELLOWSTONE   N/A     12  -5  46 E6        30.04F WCI   3
W YELLOWSTONE  NOT AVBL

$$
WYZ002>013-054>058-071-098>099-042200-
NORTHERN WYOMING

CITY           SKY/WX    TMP DP  RH WIND       PRES   REMARKS
JACKSON        SUNNY     16   1  53 CALM      30.11F
CODY           FAIR      21   5  49 SE5       30.07F WCI  15
GREYBULL       MIX PCPN  21   1  41 VRB5      30.17F WCI  15
WORLAND        FAIR      21   5  50 S5        30.15F WCI  15
SHERIDAN       FAIR      14   3  61 SE3       30.14F
BUFFALO        FAIR      14   2  58 SE8       30.08F WCI   3
GILLETTE       FAIR      14   0  53 NW8       30.11F WCI   3
HULETT         FAIR      14  -4  44 W9        30.13F WCI   2
NEWCASTLE      FAIR      18  -8  32 NW20G28   30.14F WCI   1

$$
WYZ014>020-022>026-101>103-042200-
CENTRAL WYOMING

CITY           SKY/WX    TMP DP  RH WIND       PRES   REMARKS
BIG PINEY      FAIR      26  -3  28 N13G23    30.05F WCI  15
PINEDALE       FAIR      19  -2  38 W15       30.05F WCI   5
DUBOIS         FAIR      21   0  39 NW22G29   29.97F WCI   5
LANDER         FAIR      15   1  53 CALM      30.08F
RIVERTON       FAIR      11   2  67 E3        30.11F
CASPER         FAIR      15   3  59 SW16      30.09F WCI  -1
DOUGLAS        FAIR      13   2  61 CALM      30.11F

$$
WYZ021-027>030-104>119-042200-
SOUTHERN WYOMING

CITY           SKY/WX    TMP DP  RH WIND       PRES   REMARKS
EVANSTON       FAIR      27  12  53 W16       30.10S WCI  15
FORT BRIDGER   MOCLDY    28  15  57 W17G23    30.11F WCI  16
ROCK SPRINGS   FAIR      18  10  71 SW8       30.07F WCI   8
DIXON          FAIR      23   7  51 NW9       30.11S WCI  13
RAWLINS        FAIR      12   4  70 SW8       30.06F WCI   0
SARATOGA       FAIR      10   3  72 CALM      30.06F
LARAMIE        FAIR      11  -3  53 W9        29.98F WCI  -2
CHEYENNE       CLOUDY    18  -3  39 NW14G20   30.03F WCI   4
TORRINGTON     FAIR      22   3  44 NE5       30.14F WCI  16
PINE BLUFFS    FAIR      25   1  36 NW18      30.10S WCI  11

$$


USA.gov is the U.S. government's official web portal to all federal, state and local government web resources and services.